Location: Palombina Nuova
(43.6167°N, 13.4000°E)
Time: 18:22:54
(UTC+00:00)

Cosmos 1862 - Pass Details

Date: 17 February 2020
Orbit: 539 x 556 km, 82.5° (Epoch: 04 April)

Event Time Altitude Azimuth Distance (km) Brightness Sun altitude
Rises 04:53:27 0° 355° (N) 2,706 6.8 -13.2°
Reaches altitude 10° 04:55:39 10° 359° (N) 1,809 5.9 -12.8°
Maximum altitude 04:59:35 60° 80° (E) 622 3.9 -12.1°
Drops below altitude 10° 05:03:29 10° 161° (SSE) 1,795 6.3 -11.4°
Sets 05:05:39 0° 165° (SSE) 2,683 7.1 -11.0°
